sat.trackr.live / text

‹ back to catalog

COSMO

NORAD 68460 · 2026-067AW

PAYLOAD ACTIVE UNKNOWN

§ Identity

Operator
Country
US
Launch date
2026-03-30
Launch site
AFWTR
Launch vehicle
Mass (kg)
RCS (m²)

External: N2YO · Heavens-Above · Gunter

§ Orbital elements

Epoch: 2026-05-25T02:35:55.278816Z

Period
94.90 min
Inclination
97.4480°
Eccentricity
0.0007281
Mean motion
15.17316306 rev/d
Perigee alt
508.9 km
Apogee alt
519.0 km
Semi-major
6,892.1 km
B*
4.9668e-4
RAAN
103.7957°
Arg perigee
135.2768°
Mean anomaly
224.9054°
Rev number
843

§ Raw data

COSMO1 68460U 26067AW  26145.10827869  .00009848  00000+0  49668-3 0  99982 68460  97.4480 103.7957 0007281 135.2768 224.9054 15.17316306  8434

JSON: /api/v1/satellites/68460 · /tle

For live sub-satellite position, see the globe view (requires WebGL).

§ Visibility from observer

Set your observer location to see the next 7 days of passes ≥ 10°. The values pass through the URL so the page stays shareable.

No JS? Fill the form by hand. The geolocation button needs JavaScript.

§ Radio — SatNOGS DB

ModeDescriptionDownlinkUplink
OQPSK Mode S - OQPSK 4m - CCSDS 2.222 GHz
GMSK SpaceQuest TRX-U 401.200 MHz

2 transmitters · refreshed weekly from db.satnogs.org